This is the latest recevied weather packets stored in our database for station/object K4CRS-13. If no packets are shown the sender has not sent any weather packets the latest 10 day(s).
| Time | Temp. | Humidity | Pressure | Rain* | Wind** | Luminosity | Snow |
|---|---|---|---|---|---|---|---|
| 1787839784 | 22.22° C | 99% | 1051.6 hPa | 0 mm | - | 229 W/m² | - |
| 1787839483 | 22.22° C | 99% | 1051.3 hPa | 0 mm | - | 154 W/m² | - |
| 1787839182 | 22.22° C | 99% | 1051.5 hPa | 0 mm | - | 163 W/m² | - |
| 1787838877 | 21.67° C | 99% | 1051.3 hPa | 0 mm | - | 160 W/m² | - |
| 1787838576 | 21.67° C | 99% | 1051.4 hPa | 0 mm | - | 153 W/m² | - |
| 1787838276 | 21.67° C | 99% | 1051.3 hPa | 0 mm | - | 119 W/m² | - |
| 1787837974 | 21.67° C | 99% | 1051.5 hPa | 0 mm | - | 104 W/m² | - |
| 1787837674 | 21.67° C | 99% | 1051.3 hPa | 0 mm | - | 104 W/m² | - |
| 1787837369 | 21.67° C | 99% | 1051.4 hPa | 0 mm | - | 123 W/m² | - |
| 1787837065 | 21.11° C | 99% | 1051.5 hPa | 0 mm | - | 138 W/m² | - |
| 1787836763 | 21.11° C | 99% | 1051.3 hPa | 0 mm | - | 128 W/m² | - |
| 1787836459 | 21.11° C | 99% | 1051.4 hPa | 0 mm | - | 108 W/m² | - |
| 1787836154 | 21.11° C | 99% | 1051.2 hPa | 0 mm | - | 108 W/m² | - |
| 1787835849 | 21.11° C | 99% | 1051.3 hPa | 0 mm | - | 88 W/m² | - |
| 1787835549 | 21.11° C | 99% | 1051.3 hPa | 0 mm | - | 62 W/m² | - |
| 1787835244 | 21.11° C | 99% | 1051.2 hPa | 0 mm | - | 53 W/m² | - |
| 1787834939 | 20.56° C | 99% | 1051.2 hPa | 0 mm | - | 43 W/m² | - |
| 1787834638 | 20.56° C | 99% | 1051.1 hPa | 0 mm | - | 44 W/m² | - |
| 1787834333 | 20.56° C | 99% | 1051 hPa | 0 mm | - | 40 W/m² | - |
| 1787834029 | 20.56° C | 99% | 1051 hPa | 0 mm | - | 37 W/m² | - |
| 1787833724 | 20.56° C | 99% | 1051.1 hPa | 0 mm | - | 36 W/m² | - |
| 1787833420 | 20.56° C | 99% | 1051 hPa | 0 mm | - | 32 W/m² | - |
| 1787833115 | 20.56° C | 99% | 1050.9 hPa | 0 mm | - | 31 W/m² | - |
| 1787832810 | 20.56° C | 99% | 1050.9 hPa | 0 mm | - | 25 W/m² | - |
| 1787832506 | 20.56° C | 99% | 1050.8 hPa | 0 mm | - | 20 W/m² | - |
* Rain latest hour (hover to see other rain measurements)
** Current wind speed in m/s (hover to see current wind gust speed)